Home   Weather   Ibbenbüren   Past weeks

Flag for Germany Past Weather in Ibbenbüren, North Rhine-Westphalia, Germany — Yesterday and Last 2 Weeks

Now
27 °F

Clear.


Feels Like: 27 °F
Forecast: 20 / 33 °F
Wind: 2 mph from South

Location: Muenster / Osnabrueck

Current Time: Jan 19, 2017 at 8:26:02 pm

Latest Report: Jan 19, 2017 at 7:50 pm


Visibility: 10 mi

Pressure: 30.63 "Hg

Humidity: 80%

Dew Point: 21 °F

Location of IbbenbürenLocation

Past Weather in Ibbenbüren — Graph

°F

Ibbenbüren Temperature Yesterday

Maximum temperature yesterday: 30 °F (at 12:50 pm)
Minimum temperature yesterday: 23 °F (at 6:50 am)
Average temperature yesterday: 27 °F

High & Low Weather Summary for the Past Weeks

 TemperatureHumidityPressure
High46 °F (Jan 11, 1:50 pm)100% (Jan 7, 4:20 pm)30.74 "Hg (Jan 7, 4:20 pm)
Low16 °F (Jan 6, 5:20 am)41% (Jan 19, 3:20 pm)28.94 "Hg (Jan 13, 2:20 am)
Average32 °F87%30.17 "Hg
* Reported Jan 4 6:20 pm — Jan 19 6:50 pm, Ibbenbüren, Weather by CustomWeather, © 2017

Note: Actual official high and low records may vary slightly from our data, if they occured in-between our weather recording intervals... More about our weather records

Advertising

Ibbenbüren Weather History for the Previous 24 Hours

Scroll right to see more
 ConditionsComfort  
Time TempWeatherWind HumidityBarometerVisibility
6:50 pm
Thu, Jan 19
27 °FClear.No wind80%30.63 "Hg10 mi
6:20 pm28 °FClear.No wind69%30.63 "Hg10 mi
5:50 pm28 °FClear.1 mph69%30.63 "Hg10 mi
5:20 pm32 °FClear.2 mph60%30.63 "Hg10 mi
4:50 pm34 °FSunny.3 mph56%30.63 "Hg10 mi
4:20 pm37 °FSunny.No wind45%30.63 "Hg10 mi
3:50 pm37 °FSunny.1 mph41%30.63 "Hg10 mi
3:20 pm37 °FPassing clouds.3 mph41%30.63 "HgN/A
2:50 pm37 °FPassing clouds.3 mph45%30.63 "HgN/A
2:20 pm37 °FSunny.1 mph45%30.63 "Hg10 mi
1:50 pm37 °FSunny.2 mph45%30.63 "Hg10 mi
1:20 pm36 °FSunny.3 mph48%30.66 "Hg10 mi
12:50 pm36 °FPassing clouds.3 mph52%30.66 "HgN/A
12:20 pm34 °FPassing clouds.5 mph56%30.66 "HgN/A
11:50 am32 °FSunny.2 mph64%30.66 "Hg10 mi
11:20 am30 °FSunny.2 mph69%30.69 "Hg10 mi
10:50 am30 °FPassing clouds.3 mph69%30.66 "HgN/A
10:20 am30 °FSunny.2 mph69%30.66 "Hg10 mi
9:50 am28 °FSunny.1 mph80%30.66 "Hg10 mi
9:20 am27 °FSunny.1 mph86%30.66 "Hg10 mi
8:50 am25 °FPassing clouds.2 mph86%30.66 "HgN/A
8:20 am25 °FPassing clouds.1 mph86%30.66 "HgN/A
7:50 am25 °FClear.1 mph86%30.66 "Hg10 mi
7:20 am27 °FPassing clouds.1 mph86%30.66 "HgN/A
6:50 am28 °FPassing clouds.1 mph80%30.66 "HgN/A
6:20 am28 °FClear.2 mph80%30.66 "Hg10 mi
5:50 am28 °FClear.1 mph80%30.66 "Hg10 mi
5:20 am28 °FPassing clouds.3 mph80%30.66 "HgN/A
4:50 am28 °FClear.2 mph80%30.66 "Hg10 mi
4:20 am28 °FClear.2 mph80%30.66 "Hg10 mi
3:50 am28 °FClear.1 mph80%30.66 "Hg10 mi
3:20 am28 °FClear.2 mph80%30.66 "Hg10 mi
2:50 am28 °FClear.1 mph80%30.66 "Hg10 mi
2:20 am28 °FClear.2 mph80%30.66 "Hg10 mi
1:50 am28 °FClear.2 mph80%30.66 "Hg10 mi
12:50 am28 °FClear.2 mph80%30.66 "Hg10 mi
12:20 am27 °FClear.3 mph86%30.66 "Hg10 mi
11:50 pm
Wed, Jan 18
28 °FClear.2 mph80%30.69 "Hg10 mi
11:20 pm28 °FClear.2 mph80%30.69 "Hg10 mi
10:50 pm28 °FClear.1 mph80%30.69 "Hg10 mi
10:20 pm28 °FClear.2 mph80%30.69 "Hg10 mi
9:50 pm28 °FClear.2 mph86%30.69 "Hg10 mi
9:20 pm27 °FClear.3 mph93%30.69 "Hg10 mi
8:50 pm27 °FPassing clouds.3 mph86%30.69 "HgN/A
8:20 pm27 °FClear.2 mph86%30.69 "Hg10 mi
Weather by CustomWeather, © 2017

See weather overviewHow to use our weather pages